Location: Fort Worth, Tx
(32.7431°N, 97.3695°W)
Time: 19:47:57
(UTC-04:00)

Vanguard 1 Rocket - Pass Details

Date: 16 September 2024
Orbit: 650 x 4218 km, 34.3° (Epoch: 11 October)

Event Time Altitude Azimuth Distance (km) Brightness Sun altitude
Exits shadow 05:04:36 61° 188° (S) 2,737 9.4 -38.3°
Maximum altitude 05:06:58 67° 149° (SSE) 2,841 9.6 -37.9°
Drops below altitude 10° 05:28:53 10° 74° (ENE) 7,123 12.7 -34.0°
Sets 05:35:08 0° 72° (ENE) 8,376 13.4 -32.9°
